Location: �perlecques
(50.8057°N, 2.1521°E)
Time: 03:28:31
(UTC+00:00)

ITAMSAT 1 - Pass Details

Date: 05 April 2023
Orbit: 782 x 797 km, 98.8° (Epoch: 07 June)

Event Time Altitude Azimuth Distance (km) Brightness Sun altitude
Rises 19:56:00 0° 183° (S) 3,280 10.6 -13.6°
Reaches altitude 10° 19:58:25 10° 190° (S) 2,358 9.9 -13.9°
Maximum altitude 20:03:22 43° 262° (W) 1,107 8.8 -14.6°
Drops below altitude 10° 20:08:22 10° 333° (NNW) 2,380 11.0 -15.3°
Sets 20:10:50 0° 340° (NNW) 3,315 11.7 -15.6°
